www.pogodaiklimat.ru

Погода и климат >> Архив погоды >> Россия >> Нижегородская область >> Арзамас


ПОГОДА в Арзамасе

АРХИВ ПОГОДЫ в Арзамасе

Время (UTC), дата Ветер
(напр.,м/с)
 
Видим.   Явления Облачность Т
(С)
Тd
(С)
f
(%)
Тe
(С)
Тes
(С)
Комфортность P
(гПа)
Po
(гПа)
Тmin
(С)
Tmax
(С)
R
(мм)
R24
(мм)
S
(см)
15 11.10 Ю 2-2
{8}
4000 м ясно +7.2 +1.9 69 +5 +5 по сезону 1018.4 1003.3 +12.6
18 11.10 Ю 2-3
{4}
4000 м ясно +5.5 +1.5 75 +3 +3 по сезону 1019.2 1003.9
21 11.10 ЮВ 2-4
{4}
4000 м 10/0
[Ac und]
+6.4 +2.5 76 +4 +4 по сезону 1018.7 1003.5
00 12.10 ЮВ 4-6
{6}
4000 м 10/0
[Ac und]
+5.5 +1.5 75 +2 +2 по сезону 1017.8 1002.5
03 12.10 ЮВ 3-6
{6}
4000 м 10/0
[Ac und]
+5.8 +1.8 75 +3 +3 по сезону 1016.3 1001.6 +5.5
06 12.10 ЮВ 3-6
{6}
20 км 10/0
[Ac und]
+7.0 +1.5 68 +4 +5 по сезону 1016.3 1001.2
09 12.10 ЮВ 5-9
{9}
20 км 6/0
[Ac trans Ci fib]
+12.9 +0.9 44 +11 +13 тепло 1014.3 999.5
12 12.10 Ю 4-8
{10}
20 км 10/0
[Ac und]
+13.0 0.0 41 +12 +12 тепло 1012.9 998.1
15 12.10 Ю 2-4
{8}
4000 м 10/10 300 м
[Sc]
+10.8 +3.0 59 +10 +10 тепло 1012.4 997.5 +13.0
18 12.10 Ю 2-3
{8}
4000 м 10/10 300 м
[Sc]
+8.9 +3.6 69 +7 +7 тепло 1012.1 997.1
21 12.10 Ю 2-4
{5}
4000 м 10/10 300 м
[Sc]
+8.1 +4.5 78 +6 +6 тепло 1011.3 996.2
00 13.10 Ю 1-3
{4}
4000 м 10/10 300 м
[Sc]
+7.5 +6.2 91 +7 +7 тепло 1010.7 995.6
03 13.10 Ю 1-2
{3}
4000 м 10/10 300 м
[Sc]
+7.5 +6.8 95 +6 +6 тепло 1010.2 995.1 +7.5
06 13.10 Ю 2-4
{4}
20 км 10/0
[Ac As]
+8.6 +7.1 90 +7 +7 тепло 1010.1 995.1
09 13.10 Ю 2-4
{8}
20 км 8/6 300 м
[Sc diur, vesp Ci fib]
+10.8 +5.6 70 +10 +11 тепло 1009.2 994.3
12 13.10 Ю 3-6
{7}
20 км 10/10 300 м
[Sc]
+11.9 +4.6 61 +10 +10 тепло 1008.2 993.3
15 13.10 Ю 3-6
{7}
4000 м в посл. час морось {дождь} 10/10 300 м
[St]
+9.8 +6.5 80 +8 +8 тепло 1007.8 992.8 +12.6 0.4
18 13.10 ЮВ 3-6
{7}
4000 м в посл. час морось {дождь} 10/10 300 м
[St]
+9.2 +8.1 93 +7 +7 тепло 1006.2 991.3
21 13.10 ЮВ 3-5
{7}
4000 м слабая морось {дождь} 10/10 300 м
[St]
+9.4 +8.6 95 +7 +7 тепло 1004.9 990.0
00 14.10 ЮЗ 2-4
{5}
4000 м в посл. час дождь {морось} 8/8 300 м
[Sc]
+8.1 +7.3 95 +6 +6 тепло 1004.9 990.0
03 14.10 ЮЗ 2-4
{5}
4000 м 9/9 300 м
[Sc]
+7.5 +6.7 95 +5 +5 тепло 1005.6 990.6 +7.4 1
06 14.10 Ю 2-5
{6}
20 км 8/8 300 м
[Sc]
+8.6 +5.9 83 +7 +7 тепло 1005.8 990.9
09 14.10 Ю 3-7
{8}
20 км 10/10 300 м
[Sc]
+10.8 +5.3 69 +9 +9 тепло 1005.6 990.8
12 14.10 Ю 3-6
{8}
20 км 10/10 300 м
[Sc]
+11.0 +3.6 60 +9 +9 тепло 1005.3 990.5
15 14.10 Ю 2-4
{6}
4000 м 10/10 300 м
[Sc]
+9.8 +4.5 70 +8 +8 тепло 1005.6 990.7 +11.0
18 14.10 ЮВ 2-3
{4}
4000 м 10/10 300 м
[Sc]
+9.1 +4.8 74 +8 +8 тепло 1005.0 990.1
21 14.10 Ю 2-4
{4}
4000 м 10/0
[Ac und]
+8.1 +5.0 81 +6 +6 тепло 1004.1 989.2
00 15.10 Ю 1-3
{4}
4000 м 10/0
[Ac und]
+7.6 +5.3 85 +7 +7 тепло 1003.2 988.2
03 15.10 ЮЗ 1-1
{3}
4000 м {дождь} 10/0
[Ac und]
+6.5 +5.8 95 +5 +5 тепло 1002.0 987.0 +6.5 0.7
06 15.10 ЮЗ 3-4
{4}
20 км слабая морось {дождь} 10/10 300 м
[Sc]
+7.2 +6.5 95 +4 +4 по сезону 1000.4 985.5
09 15.10 ЮЗ 4-5
{6}
20 км в посл. час морось 9/8 300 м
[Sc Ac trans]
+8.9 +6.2 83 +6 +6 тепло 998.8 984.0
12 15.10 З 4-7
{9}
20 км в посл. час дождь {морось} 10/10 300 м
[Sc]
+8.0 +4.8 80 +5 +5 по сезону 997.6 982.8
15 15.10 З 4-6
{7}
4000 м слабая морось 10/10 300 м
[St]
+5.9 +5.0 94 +2 +2 по сезону 998.1 983.1 +9.3 0.4
18 15.10 З 3-4
{6}
4000 м слабая морось 10/10 300 м
[St]
+5.6 +4.9 95 +2 +2 по сезону 998.5 983.5
21 15.10 З 3-4
{5}
4000 м слабая морось 10/10 300 м
[St]
+5.7 +5.0 95 +2 +2 по сезону 999.2 984.2
00 16.10 З 2-3
{4}
4000 м слабая морось {дождь} 10/10 300 м
[St]
+5.5 +4.6 94 +3 +3 по сезону 999.9 984.9
03 16.10 З 1-2
{4}
4000 м слабая морось 10/10 300 м
[St]
+5.7 +4.8 94 +4 +4 по сезону 1001.0 986.0 +5.4 1
06 16.10 СЗ 2-3
{4}
4000 м слабая морось 10/10 300 м
[St]
+6.4 +5.7 95 +4 +4 по сезону 1002.6 987.6
09 16.10 С 4-7
{8}
20 км {морось} 10/10 300 м
[St]
+6.8 +4.5 85 +3 +3 по сезону 1005.4 990.4
12 16.10 С 3-5
{7}
20 км {дождь} 10/8 300 м
[Sc]
+7.5 +4.0 78 +5 +5 по сезону 1007.4 992.4
15 16.10 С 2-5
{8}
4000 м 9/9 300 м
[Sc]
+7.0 +3.8 80 +5 +5 по сезону 1009.9 994.8 +7.5 0.0
18 16.10 СЗ 1-2
{5}
4000 м 6/6 300 м
[Sc]
+5.2 +3.3 88 +4 +4 по сезону 1011.2 996.0
21 16.10 СЗ 1-2
{3}
4000 м 10/10 300 м
[Sc]
+5.1 +4.4 95 +4 +4 по сезону 1011.4 996.2
00 17.10 З 1-2
{3}
4000 м 10/10 300 м
[Sc]
+5.5 +4.8 95 +4 +4 тепло 1011.3 996.1
03 17.10 З 2-3
{3}
4000 м 10/10 300 м
[Sc]
+5.6 +5.1 97 +3 +3 по сезону 1010.4 995.2 +5.1
06 17.10 ЮЗ 3-5
{7}
20 км 10/10 300 м
[Sc]
+5.7 +3.6 86 +2 +2 по сезону 1009.7 994.5
09 17.10 ЮЗ 4-7
{8}
20 км 10/10 300 м
[St]
+5.5 +2.8 83 +2 +2 по сезону 1008.2 993.0
12 17.10 З 3-6
{8}
4000 м слабая морось {дождь} 10/10 300 м
[St]
+5.8 +5.3 97 +2 +2 по сезону 1009.1 993.6
15 17.10 ЮЗ 2-4
{5}
4000 м {морось} 10/10 300 м
[St]
+6.0 +5.3 95 +3 +3 по сезону 1010.2 995.1 +6.5 0.7
18 17.10 З 2-3
{5}
4000 м {морось} 9/0
[As op]
+2.6 +2.1 97 -1 -1 по сезону 1011.2 995.9
21 17.10 З 2-3
{5}
4000 м ясно +2.5 +1.7 94 -1 -1 по сезону 1011.9 996.6
00 18.10 ЮЗ 2-4
{4}
4000 м 8/8 300 м
[Sc]
+2.4 +1.6 94 -1 -1 по сезону 1011.7 996.4
03 18.10 Ю 3-6
{6}
4000 м в посл. час ливневой дождь 8/8 300 м
[St]
+4.2 +2.7 90 0 0 по сезону 1010.2 994.9 +0.8 0.6
06 18.10 Ю 5-9
{9}
20 км слабый дождь {ливн. осадки} 10/0
[As op]
+4.9 +3.2 89 0 0 по сезону 1007.0 991.9
09 18.10 ЮЗ 4-8
{12}
20 км {дождь} 10/10 300 м
[Sc]
+7.3 +5.3 87 +4 +4 по сезону 1005.0 990.0
12 18.10 ЮЗ 6-9
{9}
20 км {дождь} 10/10 300 м
[Sc]
+11.3 +7.8 79 +8 +8 тепло 1003.2 988.4

 

Местоположение метеостанции Арзамас (Нижегородская область, Россия): широта 55.37 долгота 43.78 высота над уровнем моря 124 м.

В архиве по умолчанию представлена погода в Арзамасе за последнюю неделю. Архивные данные за месяц целиком и за предыдущие месяцы, начиная с января 2011 года, Вы можете получить, выбрав интересующий диапазон дат из раскрывающегося списка и нажав кнопку "Ввод!".

Внимание! Время в таблицах - всемирное. Для получения местного времени необходимо прибавить поправку, которая в Арзамасе равна 3 ч.

Смотрите также архив погоды в соседних городах и на ближайших метеорологических станциях:

Погода в Дальнем Константиново (Нижегородская область, Россия) (51 км)
Погода в Лукоянове (Нижегородская область, Россия) (59 км)
Погода в Павлово (Нижегородская область, Россия) (80 км)
Погода в Темникове (Мордовия, Россия) (89 км)
Погода в Нижнем Новгороде аэропорт (Нижегородская область, Россия) (95 км)
Погода в Нижнем Новгороде (Нижегородская область, Россия) (101 км)
Погода в Краснослободске (Мордовия, Россия) (105 км)
Погода в Выксе (Нижегородская область, Россия) (105 км)
Погода в Большом Болдино (Нижегородская область, Россия) (105 км)
Погода в Лысково (Нижегородская область, Россия) (106 км)

Пояснения к столбцам:

Ветер - указаны скорость ветра в м/с - средняя за 10 мин, порывы в срок и между сроками (в фигурных скобках) и направление, откуда дует ветер: С - северный, СВ - северо-восточный, В - восточный, ЮВ - юго-восточный, Ю - южный, ЮЗ - юго-западный, З - западный, СЗ - северо-западный.
Видимость - горизонтальная дальность видимости в метрах или километрах. При видимости от 1 до 10 км при отсутствии осадков обычно наблюдается дымка, при ухудшении видимости до 1 км и менее - туман. В сухую погоду видимость может ухудшаться дымом, пылью или мглою.
Явления - указаны атмосферные явления, наблюдавшиеся в срок или в последний час перед сроком; фигурными скобками обозначены явления, наблюдавшиеся между сроками (за 1-3 часа до срока); квадратными скобками обозначены град или гололедные отложения с указанием их диаметра в мм.
Облачность - указаны через наклонную черту общая и нижняя облачность в баллах и высота нижней границы облаков в метрах; квадратными скобками обозначены формы облаков: Ci - перистые, Cs - перисто-слоистые, Cc - перисто-кучевые, Ac - высококучевые, As - высокослоистые, Sc - слоисто-кучевые, Ns - слоисто-дождевые, Cu - кучевые, Cb - кучево-дождевые. Подробнее классификацию облаков см. в Атласе облаков (PDF).
T - Температура воздуха - температура, измеренная на высоте 2 м над землей.
Td - Температура точки росы - температура, при понижении до которой содержащийся в воздухе водяной пар достигнет насыщения.
f - Относительная влажность воздуха - влажноcть воздуха, измеренная на высоте 2 м над землей.
Te - Эффективная температура - температура, которую ощущает одетый по сезону человек в тени. Характеристика душности погоды. При расчете учитывается влияние влажности воздуха и скорости ветра на теплоощущения человека.
Tes - Эффективная температура на солнце - температура, которую ощущает человек, с поправкой на солнечный нагрев. Характеристика знойности погоды. Зависит от высоты солнца над горизонтом, облачности и скорости ветра. Ночью, в пасмурную погоду, а также при ветре 12 м/с и более поправка равна нулю.
P - Атмосферное давление - приведенное к уровню моря атмосферное давление.
Po - Атмосферное давление - измеренное на уровне метеостанции атмосферное давление.
Tmin - Минимальная температура - минимум температуры воздуха на высоте 2 м над землей.
Tmax - Максимальная температура - максимум температуры воздуха на высоте 2 м над землей.
R - Количество осадков - Количество выпавших осадков за период времени, мм. При наведении курсора мыши на число - период времени, за который выпало указанное количество осадков.
R24 - Количество осадков - Количество выпавших осадков за 24 часа, мм.
S - Снежный покров - Высота снежного покрова, см. При наведении курсора мыши на число - состояние снежного покрова и степень покрытия местности в баллах.